TimeCST,TemperatureF,Dew PointF,Humidity,Sea Level PressureIn,VisibilityMPH,Wind Direction,Wind SpeedMPH,Gust SpeedMPH,PrecipitationIn,Events,Conditions,WindDirDegrees,DateUTC
12:14 AM,37.4,28.4,70,30.18,10.0,SSE,17.3,20.7,N/A,,Clear,160,2012-11-17 06:14:00
12:33 AM,37.4,28.4,70,30.18,10.0,SSE,15.0,-,N/A,,Clear,160,2012-11-17 06:33:00
12:53 AM,35.6,28.4,75,30.17,10.0,SSE,15.0,20.7,N/A,,Clear,160,2012-11-17 06:53:00
1:13 AM,35.6,28.4,75,30.17,10.0,SSE,13.8,19.6,N/A,,Clear,160,2012-11-17 07:13:00
1:33 AM,37.4,28.4,70,30.17,10.0,SSE,13.8,-,N/A,,Clear,160,2012-11-17 07:33:00
1:54 AM,37.4,30.2,75,30.16,10.0,SSE,18.4,24.2,N/A,,Clear,160,2012-11-17 07:54:00
2:13 AM,37.4,30.2,75,30.16,10.0,SSE,17.3,21.9,N/A,,Clear,160,2012-11-17 08:13:00
2:33 AM,37.4,30.2,75,30.16,10.0,South,16.1,23.0,N/A,,Clear,170,2012-11-17 08:33:00
2:54 AM,37.4,30.2,75,30.15,10.0,South,17.3,24.2,N/A,,Clear,170,2012-11-17 08:54:00
3:13 AM,37.4,30.2,75,30.15,10.0,South,19.6,25.3,N/A,,Clear,170,2012-11-17 09:13:00
3:33 AM,37.4,32.0,81,30.14,10.0,South,18.4,26.5,N/A,,Clear,170,2012-11-17 09:33:00
3:53 AM,37.4,30.2,75,30.13,10.0,South,19.6,24.2,N/A,,Clear,170,2012-11-17 09:53:00
4:13 AM,37.4,32.0,81,30.13,10.0,South,19.6,25.3,N/A,,Clear,170,2012-11-17 10:13:00
4:33 AM,37.4,32.0,81,30.13,10.0,South,21.9,26.5,N/A,,Clear,170,2012-11-17 10:33:00
4:53 AM,37.4,32.0,81,30.13,10.0,South,19.6,-,N/A,,Clear,170,2012-11-17 10:53:00
5:13 AM,37.4,32.0,81,30.13,10.0,South,18.4,-,N/A,,Clear,170,2012-11-17 11:13:00
5:34 AM,39.2,32.0,75,30.13,10.0,South,20.7,26.5,N/A,,Clear,180,2012-11-17 11:34:00
5:53 AM,39.2,32.0,75,30.13,10.0,South,18.4,25.3,N/A,,Clear,170,2012-11-17 11:53:00
6:13 AM,37.4,32.0,81,30.13,10.0,South,17.3,-,N/A,,Clear,170,2012-11-17 12:13:00
6:34 AM,39.2,33.8,81,30.13,10.0,South,17.3,26.5,N/A,,Clear,170,2012-11-17 12:34:00
6:53 AM,39.2,33.8,81,30.13,10.0,South,19.6,24.2,N/A,,Clear,170,2012-11-17 12:53:00
7:13 AM,39.2,33.8,81,30.13,10.0,South,17.3,23.0,N/A,,Clear,170,2012-11-17 13:13:00
7:34 AM,39.2,32.0,75,30.14,10.0,South,20.7,25.3,N/A,,Clear,170,2012-11-17 13:34:00
7:53 AM,39.2,33.8,81,30.14,10.0,South,20.7,26.5,N/A,,Clear,170,2012-11-17 13:53:00
8:13 AM,39.2,33.8,81,30.14,10.0,South,20.7,28.8,N/A,,Clear,170,2012-11-17 14:13:00
8:34 AM,39.2,33.8,81,30.14,10.0,South,23.0,28.8,N/A,,Clear,170,2012-11-17 14:34:00
8:53 AM,41.0,33.8,76,30.14,10.0,South,18.4,-,N/A,,Clear,170,2012-11-17 14:53:00
9:13 AM,42.8,33.8,70,30.14,10.0,South,15.0,-,N/A,,Clear,180,2012-11-17 15:13:00
9:34 AM,42.8,33.8,70,30.15,10.0,South,17.3,-,N/A,,Clear,170,2012-11-17 15:34:00
9:53 AM,42.8,33.8,70,30.15,10.0,South,16.1,-,N/A,,Clear,170,2012-11-17 15:53:00
10:13 AM,44.6,33.8,66,30.15,10.0,South,17.3,23.0,N/A,,Clear,180,2012-11-17 16:13:00
10:33 AM,44.6,33.8,66,30.16,10.0,South,15.0,-,N/A,,Clear,170,2012-11-17 16:33:00
10:53 AM,46.4,35.6,66,30.16,10.0,South,15.0,23.0,N/A,,Clear,170,2012-11-17 16:53:00
11:13 AM,48.2,35.6,62,30.15,10.0,South,16.1,-,N/A,,Clear,180,2012-11-17 17:13:00
11:33 AM,48.2,35.6,62,30.14,10.0,South,15.0,20.7,N/A,,Clear,170,2012-11-17 17:33:00
11:53 AM,50.0,35.6,58,30.13,10.0,South,17.3,25.3,N/A,,Clear,180,2012-11-17 17:53:00
12:13 PM,51.8,35.6,54,30.13,10.0,South,18.4,24.2,N/A,,Clear,180,2012-11-17 18:13:00
12:33 PM,51.8,35.6,54,30.13,10.0,South,20.7,26.5,N/A,,Scattered Clouds,190,2012-11-17 18:33:00
12:53 PM,51.8,35.6,54,30.12,10.0,South,18.4,24.2,N/A,,Scattered Clouds,170,2012-11-17 18:53:00
1:14 PM,50.0,35.6,58,30.12,10.0,SSE,16.1,24.2,N/A,,Clear,160,2012-11-17 19:14:00
1:33 PM,50.0,35.6,58,30.11,10.0,SSE,15.0,-,N/A,,Clear,150,2012-11-17 19:33:00
1:53 PM,51.8,37.4,58,30.10,10.0,SSE,16.1,19.6,N/A,,Clear,150,2012-11-17 19:53:00
2:14 PM,51.8,37.4,58,30.10,10.0,SSE,15.0,18.4,N/A,,Clear,150,2012-11-17 20:14:00
2:33 PM,51.8,37.4,58,30.09,10.0,SSE,16.1,19.6,N/A,,Clear,150,2012-11-17 20:33:00
2:53 PM,53.6,37.4,54,30.09,10.0,SSE,16.1,-,N/A,,Clear,150,2012-11-17 20:53:00
3:14 PM,53.6,37.4,54,30.09,10.0,SSE,18.4,-,N/A,,Clear,150,2012-11-17 21:14:00
3:33 PM,51.8,37.4,58,30.09,10.0,SE,13.8,-,N/A,,Clear,140,2012-11-17 21:33:00
3:53 PM,51.8,37.4,58,30.09,10.0,SE,12.7,-,N/A,,Clear,140,2012-11-17 21:53:00
4:14 PM,51.8,37.4,58,30.08,10.0,SE,11.5,-,N/A,,Clear,130,2012-11-17 22:14:00
4:33 PM,50.0,35.6,58,30.09,10.0,SE,9.2,-,N/A,,Clear,130,2012-11-17 22:33:00
4:53 PM,50.0,35.6,58,30.09,10.0,SSE,12.7,-,N/A,,Clear,150,2012-11-17 22:53:00
5:13 PM,48.2,37.4,66,30.09,10.0,SE,11.5,-,N/A,,Clear,140,2012-11-17 23:13:00
5:33 PM,48.2,37.4,66,30.10,10.0,SSE,10.4,-,N/A,,Clear,150,2012-11-17 23:33:00
5:54 PM,48.2,37.4,66,30.10,10.0,SSE,11.5,-,N/A,,Clear,150,2012-11-17 23:54:00
6:13 PM,48.2,37.4,66,30.10,10.0,SE,11.5,-,N/A,,Clear,140,2012-11-18 00:13:00
6:33 PM,46.4,37.4,71,30.10,10.0,SSE,9.2,-,N/A,,Clear,150,2012-11-18 00:33:00
6:54 PM,46.4,35.6,66,30.10,10.0,SE,10.4,-,N/A,,Clear,140,2012-11-18 00:54:00
7:13 PM,46.4,35.6,66,30.10,10.0,SSE,10.4,-,N/A,,Clear,150,2012-11-18 01:13:00
7:33 PM,44.6,35.6,71,30.10,10.0,SSE,10.4,-,N/A,,Clear,150,2012-11-18 01:33:00
7:54 PM,44.6,35.6,71,30.10,10.0,SSE,11.5,-,N/A,,Clear,150,2012-11-18 01:54:00
8:13 PM,44.6,35.6,71,30.10,10.0,SE,11.5,-,N/A,,Clear,140,2012-11-18 02:13:00
8:33 PM,44.6,35.6,71,30.10,10.0,SSE,13.8,-,N/A,,Clear,150,2012-11-18 02:33:00
8:53 PM,46.4,35.6,66,30.10,10.0,SSE,15.0,-,N/A,,Clear,150,2012-11-18 02:53:00
9:13 PM,46.4,33.8,62,30.09,10.0,SSE,17.3,-,N/A,,Clear,160,2012-11-18 03:13:00
9:33 PM,46.4,33.8,62,30.09,10.0,SSE,15.0,-,N/A,,Clear,150,2012-11-18 03:33:00
9:54 PM,46.4,33.8,62,30.09,10.0,SSE,13.8,20.7,N/A,,Clear,160,2012-11-18 03:54:00
10:13 PM,46.4,33.8,62,30.09,10.0,SSE,16.1,-,N/A,,Clear,160,2012-11-18 04:13:00
10:34 PM,46.4,33.8,62,30.08,10.0,SSE,16.1,24.2,N/A,,Clear,160,2012-11-18 04:34:00
10:53 PM,46.4,33.8,62,30.08,10.0,SSE,17.3,-,N/A,,Clear,160,2012-11-18 04:53:00
11:13 PM,46.4,33.8,62,30.08,10.0,SSE,17.3,21.9,N/A,,Clear,160,2012-11-18 05:13:00
11:34 PM,46.4,33.8,62,30.08,10.0,SSE,18.4,24.2,N/A,,Clear,160,2012-11-18 05:34:00
11:53 PM,46.4,33.8,62,30.08,10.0,SSE,19.6,26.5,N/A,,Clear,160,2012-11-18 05:53:00